Stations météo

réclame
Mon MeteoGroup
Mühldorf, Allemagne (10875): Température de l'air & dewpoint: 10.08.2018 21:00:00 - 16.08.2018 21:00:00 (CEST)Mühldorf, Allemagne (10875): Température de l'air 5cm & Température de l'air -5cm: 10.08.2018 21:00:00 - 16.08.2018 21:00:00 (CEST)Mühldorf, Allemagne (10875): Température de l'air -20cm & Température de l'air -100cm: 10.08.2018 21:00:00 - 16.08.2018 21:00:00 (CEST)Mühldorf, Allemagne (10875): Vitesse du vent & gusts: 10.08.2018 21:00:00 - 16.08.2018 21:00:00 (CEST)Mühldorf, Allemagne (10875): Direction du vent: 10.08.2018 21:00:00 - 16.08.2018 21:00:00 (CEST)Mühldorf, Allemagne (10875): reduced air pressure: 10.08.2018 21:00:00 - 16.08.2018 21:00:00 (CEST)Mühldorf, Allemagne (10875): visibility: 10.08.2018 21:00:00 - 16.08.2018 21:00:00 (CEST)Mühldorf, Allemagne (10875): Ensoleillement: 10.08.2018 21:00:00 - 16.08.2018 21:00:00 (CEST)Mühldorf, Allemagne (10875): Quantités de précipitations: 10.08.2018 21:00:00 - 16.08.2018 21:00:00 (CEST)
Date & Time tt [°C] td [°C] tt 5cm [°C] tt -5cm [°C] tt -20cm [°C] tt -100cm [°C] ff [km/h] ff [knt] fx [km/h] fx [knt] dd ppp [hPa] vv [km] sd [min] rr [mm]
16.08.2018 21:00:00 20,5 12,9 16,6 24,0 22,7 19,6 4 2 7 4 ENE 1014,4 30 0 0,0
16.08.2018 20:00:00 23,7 12,0 22,4 25,9 22,5 19,6 6 3 16 9 NE 1013,7 23 57 0,0
16.08.2018 19:00:00 26,2 11,3 27,5 27,5 22,2 19,6 11 6 23 12 E 1013,3 60 60 0,0
16.08.2018 18:00:00 27,1 11,0 30,5 28,6 21,9 19,6 11 6 19 11 ENE 1013,4 45 60 0,0
16.08.2018 17:00:00 26,9 10,7 30,5 28,9 21,5 19,6 11 6 23 12 E 1013,9 34 60 0,0
16.08.2018 16:00:00 26,5 11,2 30,2 28,5 21,1 19,6 10 5 24 13 ENE 1014,3 36 59 0,0
16.08.2018 15:00:00 26,7 11,1 33,0 27,3 20,9 19,6 13 7 24 13 E 1015,0 28 60 0,0
16.08.2018 14:00:00 25,9 9,9 32,1 25,6 20,6 19,6 11 6 24 13 ESE 1015,7 33 60 0,0
16.08.2018 13:00:00 24,9 10,7 29,7 24,2 20,4 19,6 13 7 24 13 E 1016,5 23 60 0,0
16.08.2018 12:00:00 24,0 12,9 27,7 23,1 20,3 19,6 10 5 23 12 E 1017,2 29 60 0,0
16.08.2018 11:00:00 21,9 12,4 25,8 21,9 20,3 19,7 10 5 16 9 E 1018,1 23 60 0,0
16.08.2018 10:00:00 20,3 13,1 23,9 20,0 20,4 19,7 6 3 12 7 ESE 1018,5 29 60 0,0
16.08.2018 09:00:00 17,8 13,1 20,9 17,8 20,5 19,7 6 3 10 5 E 1019,0 30 60 0,0
16.08.2018 08:00:00 15,7 12,7 16,2 15,9 20,7 19,7 5 3 8 4 E 1019,5 18 60 0,0
16.08.2018 07:00:00 12,5 11,5 12,6 14,9 20,9 19,7 0 0 4 2 N 1020,2 8 13 0,0
16.08.2018 06:00:00 11,9 11,5 9,7 15,3 21,1 19,7 4 2 5 3 E 1020,0 13 0 0,0
16.08.2018 05:00:00 12,6 12,2 10,7 15,7 21,3 19,7 4 2 6 3 ENE 1020,0 13 0 0,0
16.08.2018 04:00:00 12,8 12,4 11,2 16,2 21,5 19,7 3 2 5 3 E 1020,1 13 0 0,0
16.08.2018 03:00:00 13,0 12,5 11,6 16,8 21,7 19,7 3 1 5 3 NW 1020,4 8 0 0,0
16.08.2018 02:00:00 14,0 13,4 12,2 17,4 21,9 19,7 3 2 5 3 E 1020,4 15 0 0,0
16.08.2018 01:00:00 14,3 13,4 12,9 18,1 22,0 19,7 0 0 8 4 N 1020,4 14 0 0,0
16.08.2018 00:00:00 15,2 14,0 13,6 18,8 22,2 19,7 4 2 5 3 E 1020,3 23 0 0,0
15.08.2018 23:00:00 15,7 14,0 14,1 19,6 22,2 19,7 0 0 6 3 N 1020,1 25 0 0,0
15.08.2018 22:00:00 16,9 14,7 14,9 20,6 22,3 19,7 2 1 3 2 E 1019,7 25 0 0,0
15.08.2018 21:00:00 18,1 14,3 15,6 21,9 22,2 19,7 3 1 4 2 NNE 1019,1 21 0 0,0
15.08.2018 20:00:00 22,9 13,4 20,9 23,2 22,2 19,7 3 1 7 4 S 1017,9 56 56 0,0
15.08.2018 19:00:00 23,4 13,2 24,3 23,7 22,0 19,7 4 2 7 4 ESE 1017,9 45 4 0,0
15.08.2018 18:00:00 23,7 11,8 24,1 24,7 21,9 19,7 5 3 14 8 E 1018,2 48 7 0,0
15.08.2018 17:00:00 24,6 11,2 27,7 25,5 21,7 19,7 8 4 14 8 W 1018,2 51 40 0,0
15.08.2018 16:00:00 24,1 9,2 25,7 25,0 21,5 19,7 6 3 13 7 W 1018,5 34 28 0,0
15.08.2018 15:00:00 23,6 11,9 25,6 25,0 21,3 19,7 6 4 18 10 WNW 1018,8 42 33 0,0
15.08.2018 14:00:00 23,0 12,7 28,7 23,7 21,2 19,7 10 6 18 10 W 1019,1 44 21 0,0
15.08.2018 13:00:00 21,4 13,3 22,8 22,8 21,0 19,7 6 4 19 10 NW 1019,7 31 0 0,0
15.08.2018 12:00:00 22,1 11,6 27,0 23,7 20,9 19,7 8 4 18 10 N 1019,7 25 35 0,0
15.08.2018 11:00:00 21,7 11,1 26,8 22,7 20,9 19,7 7 4 14 8 WSW 1019,9 27 56 0,0
15.08.2018 10:00:00 20,4 11,9 24,5 20,6 21,0 19,7 6 3 13 7 W 1019,9 23 52 0,0
15.08.2018 09:00:00 18,4 12,3 20,6 19,0 21,1 19,7 9 5 14 7 W 1020,1 18 52 0,0
15.08.2018 08:00:00 17,0 12,6 18,9 17,7 21,2 19,7 5 3 7 4 W 1020,0 26 60 0,0
15.08.2018 07:00:00 14,2 12,3 14,4 17,1 21,4 19,7 5 3 6 3 WNW 1020,0 17 19 0,0
15.08.2018 06:00:00 15,5 13,9 14,0 17,6 21,5 19,7 2 1 6 3 WSW 1019,6 29 0 0,0
15.08.2018 05:00:00 15,8 14,3 15,0 18,1 21,6 19,7 6 3 7 4 W 1019,3 26 0 0,0
15.08.2018 04:00:00 16,4 14,7 15,4 18,6 21,7 19,7 4 2 6 3 W 1019,1 30 0 0,0
15.08.2018 03:00:00 16,8 15,1 16,4 18,8 21,8 19,7 3 2 4 2 W 1018,7 35 0 0,0
15.08.2018 02:00:00 17,1 15,4 16,6 19,0 21,9 19,7 0 0 4 2 N 1018,5 41 0 0,0
15.08.2018 01:00:00 17,1 14,8 16,7 19,1 22,1 19,7 4 2 5 3 WNW 1018,2 39 0 0,0
15.08.2018 00:00:00 17,1 15,0 16,6 19,3 22,2 19,8 0 0 4 2 N 1018,1 48 0 0,0
14.08.2018 23:00:00 17,0 15,0 16,4 19,6 22,3 19,8 3 2 6 3 W 1017,8 41 0 0,0
14.08.2018 22:00:00 17,8 15,1 16,5 20,3 22,3 19,8 3 2 6 3 W 1017,2 46 0 0,0
14.08.2018 21:00:00 18,8 15,0 17,7 20,9 22,3 19,8 3 2 6 3 W 1016,4 44 0 0,0
14.08.2018 20:00:00 20,5 12,9 18,6 21,6 22,3 19,8 5 3 11 6 NW 1015,2 51 19 0,0
14.08.2018 19:00:00 22,6 11,1 22,5 22,4 22,3 19,8 10 6 22 12 NW 1014,2 47 33 0,0
14.08.2018 18:00:00 23,2 11,1 23,6 23,1 22,2 19,8 14 8 28 15 NW 1014,0 49 41 0,0
14.08.2018 17:00:00 22,8 11,3 23,3 23,3 22,1 19,8 16 9 27 15 WNW 1014,0 38 21 0,0
14.08.2018 16:00:00 23,4 11,5 24,4 23,8 22,0 19,8 18 10 30 16 W 1013,7 29 44 0,0
14.08.2018 15:00:00 23,1 13,7 27,9 23,0 21,9 19,8 12 7 29 16 SW 1013,9 46 14 0,0
14.08.2018 14:00:00 22,9 12,4 26,0 23,6 21,8 19,8 17 9 32 17 W 1014,0 51 54 0,0
14.08.2018 13:00:00 21,0 14,0 23,9 22,8 21,7 19,8 16 8 26 14 WNW 1014,5 35 19 0,0
14.08.2018 12:00:00 20,8 13,9 22,7 22,4 21,7 19,8 12 7 26 14 W 1014,3 44 32 0,0
14.08.2018 11:00:00 19,9 13,8 23,2 20,9 21,8 19,8 15 8 25 14 WNW 1014,6 34 12 0,0
14.08.2018 10:00:00 19,1 14,9 20,6 20,2 21,9 19,8 17 9 24 13 W 1014,7 40 0 0,0
14.08.2018 09:00:00 18,4 15,3 19,2 19,5 22,0 19,8 12 6 21 11 W 1014,4 36 16 0,0
14.08.2018 08:00:00 17,3 14,8 17,2 18,7 22,2 19,8 10 5 13 7 W 1014,1 33 32 0,0
14.08.2018 07:00:00 16,6 15,5 15,9 18,3 22,3 19,8 6 3 8 5 WSW 1013,4 30 0 0,0
14.08.2018 06:00:00 15,6 14,9 15,0 18,6 22,5 19,8 4 2 6 4 WNW 1013,0 13 0 0,0
14.08.2018 05:00:00 16,1 15,4 15,2 19,0 22,7 19,8 3 2 8 4 NW 1012,5 13 0 0,0
14.08.2018 04:00:00 16,9 15,8 16,3 19,3 22,9 19,8 5 3 9 5 W 1012,4 24 0 0,0
14.08.2018 03:00:00 17,3 16,3 16,8 19,7 23,0 19,8 4 2 11 6 WSW 1012,2 18 0 0,0
14.08.2018 02:00:00 17,5 16,5 17,2 20,0 23,2 19,8 4 2 7 4 SW 1012,3 15 0 0,0
14.08.2018 01:00:00 17,4 16,7 17,4 20,2 23,4 19,8 4 2 5 3 SE 1012,3 13 0 0,0
14.08.2018 00:00:00 17,2 16,6 17,3 20,5 23,7 19,8 0 0 5 3 N 1012,0 4,3 0 0,1
13.08.2018 23:00:00 17,7 16,8 17,4 20,8 23,9 19,9 2 1 11 6 SW 1012,3 14 0 0,6
13.08.2018 22:00:00 17,8 17,0 17,6 21,1 24,1 19,9 4 2 16 9 SE 1011,8 8 0 0,6
13.08.2018 21:00:00 17,8 17,0 17,6 21,6 24,3 19,9 7 4 20 11 SSW 1011,9 19 0 0,5
13.08.2018 20:00:00 17,7 16,3 17,2 22,4 24,3 19,9 16 9 31 17 WNW 1010,8 39 0 3,4
13.08.2018 19:00:00 17,8 16,6 17,2 24,3 24,1 19,9 25 13 74 40 WNW 1011,0 6 0 21,1
13.08.2018 18:00:00 26,5 11,4 26,0 30,5 23,7 19,9 26 14 51 28 NW 1007,7 47 0 0,0
13.08.2018 17:00:00 29,5 11,8 32,5 33,0 23,3 19,9 13 7 23 12 NNW 1005,5 28 58 0,0
13.08.2018 16:00:00 30,1 10,7 35,5 33,4 22,9 19,9 13 7 27 15 NNW 1006,0 27 60 0,0
13.08.2018 15:00:00 30,5 11,5 37,8 32,9 22,4 19,9 12 6 29 16 WNW 1006,8 41 55 0,0
13.08.2018 14:00:00 30,0 10,8 34,4 32,1 22,0 19,9 15 8 26 14 WNW 1007,4 44 56 0,0
13.08.2018 13:00:00 31,0 11,4 37,3 30,4 21,7 19,9 10 5 22 12 WNW 1007,9 21 60 0,0
13.08.2018 12:00:00 29,4 15,2 36,2 28,5 21,5 19,9 7 4 16 9 WNW 1008,6 20 60 0,0
13.08.2018 11:00:00 26,7 14,4 32,9 26,0 21,4 19,9 4 2 16 8 NNW 1009,4 24 60 0,0
13.08.2018 10:00:00 25,4 15,5 28,8 23,3 21,5 19,9 4 2 9 5 SSE 1009,7 16 60 0,0
13.08.2018 09:00:00 21,8 14,7 24,7 20,6 21,6 19,9 5 3 9 5 SE 1010,3 16 60 0,0
13.08.2018 08:00:00 19,5 13,7 21,3 18,6 21,7 19,9 2 1 5 3 ESE 1011,0 25 60 0,0
13.08.2018 07:00:00 14,9 12,4 14,9 17,5 21,9 19,9 2 1 5 3 E 1011,9 11 22 0,0
13.08.2018 06:00:00 14,9 13,1 12,5 18,0 22,1 19,9 5 3 8 5 E 1011,6 19 0 0,0
13.08.2018 05:00:00 16,2 14,5 14,4 18,6 22,2 19,9 5 3 8 5 E 1011,8 21 0 0,0
13.08.2018 04:00:00 15,9 14,5 15,5 18,9 22,4 19,9 0 0 6 3 N 1012,2 20 0 0,0
13.08.2018 03:00:00 15,8 14,5 15,2 19,0 22,6 19,9 4 2 5 3 E 1012,3 19 0 0,0
13.08.2018 02:00:00 15,3 14,3 14,6 19,2 22,7 20,0 2 1 6 3 ENE 1012,8 20 0 0,0
13.08.2018 01:00:00 15,2 13,6 13,4 19,9 22,9 20,0 3 2 5 3 N 1013,2 23 0 0,0
13.08.2018 00:00:00 15,5 13,6 13,6 20,7 23,0 20,0 4 2 5 3 W 1013,3 28 0 0,0
12.08.2018 23:00:00 16,8 14,4 15,4 21,9 23,0 20,0 2 1 4 2 W 1013,1 27 0 0,0
12.08.2018 22:00:00 17,8 14,6 16,0 23,2 22,9 20,0 3 1 6 3 WNW 1013,1 33 0 0,0
12.08.2018 21:00:00 20,1 14,4 17,6 25,1 22,7 20,0 2 1 8 4 NNW 1012,8 31 6 0,0
12.08.2018 20:00:00 25,7 12,2 25,7 27,1 22,4 20,0 7 4 11 6 NE 1011,6 53 60 0,0
12.08.2018 19:00:00 27,8 11,1 29,8 28,8 22,1 20,0 8 4 16 8 ENE 1011,5 43 60 0,0
12.08.2018 18:00:00 28,4 11,2 32,0 29,8 21,6 20,0 8 4 14 8 ENE 1012,0 33 60 0,0
12.08.2018 17:00:00 28,0 10,4 31,8 30,0 21,2 20,0 7 4 14 8 ESE 1012,7 24 60 0,0
12.08.2018 16:00:00 27,6 10,2 34,3 29,2 20,8 20,0 6 3 20 11 NE 1013,4 31 60 0,0
12.08.2018 15:00:00 27,1 10,6 33,8 27,7 20,5 20,0 9 5 18 10 E 1014,3 24 60 0,0
12.08.2018 14:00:00 25,9 9,9 32,0 25,7 20,2 20,0 10 5 22 12 E 1015,2 23 60 0,0
12.08.2018 13:00:00 25,0 8,9 30,0 23,5 20,0 20,0 13 7 23 13 E 1016,2 25 60 0,0
12.08.2018 12:00:00 24,0 9,9 27,6 21,9 19,9 20,0 13 7 27 14 E 1016,9 11 60 0,0
12.08.2018 11:00:00 22,3 11,1 25,4 20,4 19,9 20,0 14 7 22 12 E 1017,6 16 60 0,0
12.08.2018 10:00:00 19,7 10,8 22,8 18,9 20,0 20,0 11 6 18 10 ESE 1018,5 13 60 0,0
12.08.2018 09:00:00 16,8 11,1 19,3 16,5 20,1 20,0 6 3 10 5 ESE 1019,3 21 60 0,0
12.08.2018 08:00:00 14,1 10,5 14,3 14,1 20,3 20,0 4 2 6 3 ESE 1020,2 20 60 0,0
12.08.2018 07:00:00 10,0 8,0 9,2 12,9 20,6 20,0 0 0 3 1 N 1021,4 16 23 0,0
12.08.2018 06:00:00 8,6 8,4 6,2 13,1 20,8 20,0 0 0 2 1 N 1021,5 13 0 0,0
12.08.2018 05:00:00 9,2 9,0 6,4 13,7 21,0 20,0 0 0 4 2 N 1022,0 13 0 0,0
12.08.2018 04:00:00 9,7 9,5 7,7 14,3 21,2 20,0 1 1 4 2 SSW 1022,3 7 0 0,0
12.08.2018 03:00:00 11,0 11,0 8,2 14,9 21,4 20,0 2 1 4 2 ESE 1022,6 14 0 0,0
12.08.2018 02:00:00 11,5 10,7 9,7 15,6 21,6 20,0 2 1 3 2 W 1022,8 29 0 0,0
12.08.2018 01:00:00 11,9 10,7 9,8 16,4 21,8 20,0 0 0 4 2 N 1023,0 24 0 0,0
12.08.2018 00:00:00 12,7 11,0 11,5 17,0 21,9 20,0 4 2 5 3 NW 1023,1 29 0 0,0
11.08.2018 23:00:00 13,8 12,0 11,8 17,7 22,0 20,0 2 1 5 3 W 1022,9 36 0 0,0
11.08.2018 22:00:00 14,7 11,5 11,7 18,7 22,1 20,0 3 1 4 2 NW 1022,6 41 0 0,0
11.08.2018 21:00:00 16,6 11,8 12,9 20,1 22,1 20,0 3 1 8 4 NW 1022,0 43 7 0,0
11.08.2018 20:00:00 21,8 8,3 20,9 21,3 22,0 20,0 7 4 16 9 NW 1020,9 61 58 0,0
11.08.2018 19:00:00 23,5 7,1 23,9 22,3 21,9 20,0 11 6 29 16 WNW 1020,5 36 59 0,0
11.08.2018 18:00:00 24,1 8,5 25,5 23,0 21,8 20,0 18 10 29 16 WNW 1020,4 32 51 0,0
11.08.2018 17:00:00 23,7 9,1 26,1 23,6 21,6 20,0 16 8 32 17 NW 1020,7 29 55 0,0
11.08.2018 16:00:00 23,4 9,8 25,1 23,7 21,4 20,0 19 11 38 20 W 1021,2 20 55 0,0
11.08.2018 15:00:00 22,3 10,2 24,0 23,6 21,2 20,0 14 8 34 18 WNW 1022,0 38 43 0,0
11.08.2018 14:00:00 23,0 10,4 27,8 23,3 21,0 20,0 18 10 31 17 W 1022,2 16 60 0,0
11.08.2018 13:00:00 22,4 11,9 26,4 22,6 20,9 20,0 17 9 32 17 WNW 1022,5 20 57 0,0
11.08.2018 12:00:00 20,3 12,2 23,0 21,8 20,8 20,0 18 10 25 14 WNW 1023,1 33 29 0,0
11.08.2018 11:00:00 19,2 13,4 21,7 20,4 20,8 20,0 5 3 14 8 S 1023,3 35 33 0,0
11.08.2018 10:00:00 15,1 12,7 18,0 17,7 20,9 20,0 4 2 8 4 NW 1024,0 12 12 0,0
11.08.2018 09:00:00 12,7 12,4 14,4 16,1 21,0 20,0 5 3 8 4 W 1024,6 0,3 0 0,0
11.08.2018 08:00:00 11,9 11,5 13,2 15,1 21,2 20,0 2 1 6 3 SW 1024,6 0,2 0 0,0
11.08.2018 07:00:00 11,2 11,0 11,9 14,6 21,4 20,0 3 1 5 3 E 1024,4 0,1 0 0,1
11.08.2018 06:00:00 10,4 10,4 10,7 14,3 21,6 20,0 4 2 5 3 W 1024,6 0,1 0 0,0
11.08.2018 05:00:00 10,4 10,0 9,8 14,6 21,8 19,9 4 2 8 4 W 1024,6 0,2 0 0,0
11.08.2018 04:00:00 11,9 11,9 12,0 14,7 22,0 19,9 5 3 8 4 E 1024,4 0,1 0 0,0
11.08.2018 03:00:00 10,8 10,5 9,6 15,1 22,2 19,9 4 2 4 2 SE 1024,9 1,7 0 0,0
11.08.2018 02:00:00 11,9 11,2 10,3 15,7 22,4 19,9 4 2 8 4 E 1024,9 9 0 0,0
11.08.2018 01:00:00 12,3 12,0 10,0 16,3 22,6 19,9 0 0 6 4 N 1025,2 5 0 0,0
11.08.2018 00:00:00 13,5 12,7 12,4 17,0 22,7 19,9 6 4 9 5 E 1025,1 16 0 0,0
10.08.2018 23:00:00 14,1 12,9 13,0 17,9 22,8 19,9 5 3 8 4 E 1025,2 14 0 0,0
10.08.2018 22:00:00 15,1 13,6 14,8 18,4 23,0 19,9 2 1 5 3 ENE 1025,2 22 0 0,0
10.08.2018 21:00:00 15,5 13,0 15,4 18,7 23,1 19,9 3 2 7 4 ESE 1025,3 30 0 0,0

tt = Température de l'air
td = dewpoint
tt 5cm = Température de l'air 5cm
tt -5cm = Température de l'air -5cm
tt -20cm = Température de l'air -20cm
tt -100cm = Température de l'air -100cm
ff = Vitesse du vent
fx = gusts
dd = Direction du vent
ppp = reduced air pressure
vv = visibility
sd = Ensoleillement
rr = Quantités de précipitations

stations d'obs. à proximité